User: anonymous   Login
Location: Coupvray
(48.8929°N, 2.7967°E)
Time: 23:38:01
(UTC+00:00)
Language:

Meteor 1-28 Rocket - Orbit

View from above orbital plane
View from above orbital plane
View from above satellite
View from above satellite

Ground track
Ground track

The orbit data is extracted from the following two-line orbital elements,

1 10114U 77057B   20273.57853956 +.00000516 +00000-0 +28915-4 0  9996
2 10114 097.3221 059.0737 0015466 085.8387 274.4614 15.17535043365359
Epoch (UTC): 29 September 2020 13:53:05
Eccentricity: 0.0015466
inclination: 97.3221°
perigee height: 502 km
apogee height: 524 km
right ascension of ascending node: 59.0737°
argument of perigee: 85.8387°
revolutions per day: 15.17535043
mean anomaly at epoch: 274.4614°
orbit number at epoch: 36535

The dashed part of the orbit path shows where the satellite is in the earth's shadow,  

DLR